00:00:15,705B7FE0,0,0,19380,0,0,145
00:00:31,705B81E0,0,0,19380,0,0,145
00:00:47,705B83E0,0,0,19380,0,0,145
00:01:03,705B85E0,0,0,19380,0,0,145
00:01:19,705B87E0,0,0,19380,0,0,146
00:01:35,705B89E0,0,0,19380,0,0,146
00:01:51,705B8BE0,0,0,19380,0,0,145
00:02:07,705B8DE0,0,0,19380,0,0,145
00:02:23,705B8FE0,0,0,19380,0,0,144
00:02:39,705B91E0,0,0,19380,0,0,143
00:02:55,705B93E0,0,0,19380,0,0,142
00:03:11,705B95E0,0,0,19380,0,0,142
00:03:27,705B97E0,0,0,19380,0,0,141
00:03:43,705B99E0,0,0,19380,0,0,141
00:03:59,705B9BE0,0,0,19380,0,0,141
00:04:15,705B9DE0,0,0,19380,0,0,141
00:04:31,705B9FE0,0,0,19380,0,0,141
00:04:47,705BA1E0,0,0,19380,0,0,142
00:05:03,705BA3E0,0,0,19380,0,0,143
00:05:19,705BA5E0,0,0,19380,0,0,143
00:05:35,705BA7E0,0,0,19380,0,0,143
00:05:51,705BA9E0,0,0,19380,0,0,144
00:06:07,705BABE0,0,0,19380,0,0,144
00:06:23,705BADE0,0,0,19380,0,0,144
00:06:39,705BAFE0,0,0,19380,0,0,145
00:06:55,705BB1E0,0,0,19380,0,0,145
00:07:11,705BB3E0,0,0,19380,0,0,145
00:07:27,705BB5E0,0,0,19380,0,0,145
00:07:43,705BB7E0,0,0,19380,0,0,145
00:07:59,705BB9E0,0,0,19380,0,0,146
00:08:15,705BBBE0,0,0,19380,0,0,146
00:08:31,705BBDE0,0,0,19380,0,0,146
00:08:47,705BBFE0,0,0,19380,0,0,145
00:09:03,705BC1E0,0,0,19380,0,0,145
00:09:19,705BC3E0,0,0,19380,0,0,144
00:09:35,705BC5E0,0,0,19380,0,0,143
00:09:51,705BC7E0,0,0,19380,0,0,142
00:10:07,705BC9E0,0,0,19380,0,0,142
00:10:23,705BCBE0,0,0,19380,0,0,141
00:10:39,705BCDE0,0,0,19380,0,0,141
00:10:55,705BCFE0,0,0,19380,0,0,141
00:11:11,705BD1E0,0,0,19380,0,0,141
00:11:27,705BD3E0,0,0,19380,0,0,141
00:11:43,705BD5E0,0,0,19380,0,0,142
00:11:59,705BD7E0,0,0,19380,0,0,142
00:12:15,705BD9E0,0,0,19380,0,0,143
00:12:31,705BDBE0,0,0,19380,0,0,143
00:12:47,705BDDE0,0,0,19380,0,0,144
00:13:03,705BDFE0,0,0,19380,0,0,144
00:13:19,705BE1E0,0,0,19380,0,0,145
00:13:35,705BE3E0,0,0,19380,0,0,145
00:13:51,705BE5E0,0,0,19380,0,0,145
00:14:07,705BE7E0,0,0,19380,0,0,145
00:14:23,705BE9E0,0,0,19380,0,0,145
00:14:39,705BEBE0,0,0,19380,0,0,146
00:14:55,705BEDE0,0,0,19380,0,0,146
00:15:11,705BEFE0,0,0,19380,0,0,146
00:15:27,705BF1E0,0,0,19380,0,0,145
00:15:43,705BF3E0,0,0,19380,0,0,144
00:15:59,705BF5E0,0,0,19380,0,0,144
00:16:15,705BF7E0,0,0,19380,0,0,143
00:16:31,705BF9E0,0,0,19380,0,0,142
00:16:47,705BFBE0,0,0,19380,0,0,142
00:17:03,705BFDE0,0,0,19380,0,0,141
00:17:19,705BFFE0,0,0,19380,0,0,141
00:17:35,705C01E0,0,0,19380,0,0,141
00:17:51,705C03E0,0,0,19380,0,0,141
00:18:07,705C05E0,0,0,19380,0,0,142
00:18:23,705C07E0,0,0,19380,0,0,142
00:18:39,705C09E0,0,0,19380,0,0,143
00:18:55,705C0BE0,0,0,19380,0,0,143
00:19:11,705C0DE0,0,0,19380,0,0,143
00:19:27,705C0FE0,0,0,19380,0,0,144
00:19:43,705C11E0,0,0,19380,0,0,144
00:19:59,705C13E0,0,0,19380,0,0,144
00:20:15,705C15E0,0,0,19380,0,0,145
00:20:31,705C17E0,0,0,19380,0,0,145
00:20:47,705C19E0,0,0,19380,0,0,145
00:21:03,705C1BE0,0,0,19380,0,0,145
00:21:19,705C1DE0,0,0,19380,0,0,146
00:21:35,705C1FE0,0,0,19380,0,0,146
00:21:51,705C21E0,0,0,19380,0,0,145
00:22:07,705C23E0,0,0,19380,0,0,145
00:22:23,705C25E0,0,0,19380,0,0,144
00:22:39,705C27E0,0,0,19380,0,0,143
00:22:55,705C29E0,0,0,19380,0,0,143
00:23:11,705C2BE0,0,0,19380,0,0,142
00:23:27,705C2DE0,0,0,19380,0,0,141
00:23:43,705C2FE0,0,0,19380,0,0,141
00:23:59,705C31E0,0,0,19380,0,0,141
00:24:15,705C33E0,0,0,19380,0,0,141
00:24:31,705C35E0,0,0,19380,0,0,142
00:24:47,705C37E0,0,0,19380,0,0,142
00:25:03,705C39E0,0,0,19380,0,0,142
00:25:19,705C3BE0,0,0,19380,0,0,143
00:25:35,705C3DE0,0,0,19380,0,0,143
00:25:51,705C3FE0,0,0,19380,0,0,144
00:26:07,705C41E0,0,0,19380,0,0,144
00:26:23,705C43E0,0,0,19380,0,0,144
00:26:39,705C45E0,0,0,19380,0,0,145
00:26:55,705C47E0,0,0,19380,0,0,145
00:27:11,705C49E0,0,0,19380,0,0,145
00:27:27,705C4BE0,0,0,19380,0,0,145
00:27:43,705C4DE0,0,0,19380,0,0,146
00:27:59,705C4FE0,0,0,19380,0,0,146
00:28:15,705C51E0,0,0,19380,0,0,145
00:28:31,705C53E0,0,0,19380,0,0,144
00:28:47,705C55E0,0,0,19380,0,0,144
00:29:03,705C57E0,0,0,19380,0,0,143
00:29:19,705C59E0,0,0,19380,0,0,142
00:29:35,705C5BE0,0,0,19380,0,0,142
00:29:51,705C5DE0,0,0,19380,0,0,141
00:30:07,705C5FE0,0,0,19380,0,0,141
00:30:23,705C61E0,0,0,19380,0,0,141
00:30:39,705C63E0,0,0,19380,0,0,141
00:30:55,705C65E0,0,0,19380,0,0,142
00:31:11,705C67E0,0,0,19380,0,0,142
00:31:27,705C69E0,0,0,19380,0,0,143
00:31:43,705C6BE0,0,0,19380,0,0,143
00:31:59,705C6DE0,0,0,19380,0,0,143
00:32:15,705C6FE0,0,0,19380,0,0,144
00:32:31,705C71E0,0,0,19380,0,0,144
00:32:47,705C73E0,0,0,19380,0,0,144
00:33:03,705C75E0,0,0,19380,0,0,145
00:33:19,705C77E0,0,0,19380,0,0,145
00:33:35,705C79E0,0,0,19380,0,0,145
00:33:51,705C7BE0,0,0,19380,0,0,145
00:34:07,705C7DE0,0,0,19380,0,0,145
00:34:23,705C7FE0,0,0,19380,0,0,146
00:34:39,705C81E0,0,0,19380,0,0,145
00:34:55,705C83E0,0,0,19380,0,0,145
00:35:11,705C85E0,0,0,19380,0,0,144
00:35:27,705C87E0,0,0,19380,0,0,143
00:35:43,705C89E0,0,0,19380,0,0,142
00:35:59,705C8BE0,0,0,19380,0,0,142
00:36:15,705C8DE0,0,0,19380,0,0,141
00:36:31,705C8FE0,0,0,19380,0,0,141
00:36:47,705C91E0,0,0,19380,0,0,141
00:37:03,705C93E0,0,0,19380,0,0,141
00:37:19,705C95E0,0,0,19380,0,0,141
00:37:35,705C97E0,0,0,19380,0,0,142
00:37:51,705C99E0,0,0,19380,0,0,143
00:38:07,705C9BE0,0,0,19380,0,0,143
00:38:23,705C9DE0,0,0,19380,0,0,143
00:38:39,705C9FE0,0,0,19380,0,0,144
00:38:55,705CA1E0,0,0,19380,0,0,144
00:39:11,705CA3E0,0,0,19380,0,0,144
00:39:27,705CA5E0,0,0,19380,0,0,145
00:39:43,705CA7E0,0,0,19380,0,0,145
00:39:59,705CA9E0,0,0,19380,0,0,145
00:40:15,705CABE0,0,0,19380,0,0,145
00:40:31,705CADE0,0,0,19380,0,0,146
00:40:47,705CAFE0,0,0,19380,0,0,146
00:41:03,705CB1E0,0,0,19380,0,0,145
00:41:19,705CB3E0,0,0,19380,0,0,144
00:41:35,705CB5E0,0,0,19380,0,0,144
00:41:51,705CB7E0,0,0,19380,0,0,143
00:42:07,705CB9E0,0,0,19380,0,0,143
00:42:23,705CBBE0,0,0,19380,0,0,142
00:42:39,705CBDE0,0,0,19380,0,0,141
00:42:55,705CBFE0,0,0,19380,0,0,141
00:43:11,705CC1E0,0,0,19380,0,0,141
00:43:27,705CC3E0,0,0,19380,0,0,141
00:43:43,705CC5E0,0,0,19380,0,0,142
00:43:59,705CC7E0,0,0,19380,0,0,142
00:44:15,705CC9E0,0,0,19380,0,0,142
00:44:31,705CCBE0,0,0,19380,0,0,143
00:44:47,705CCDE0,0,0,19380,0,0,143
00:45:03,705CCFE0,0,0,19380,0,0,144
00:45:19,705CD1E0,0,0,19380,0,0,144
00:45:35,705CD3E0,0,0,19380,0,0,144
00:45:51,705CD5E0,0,0,19380,0,0,145
00:46:07,705CD7E0,0,0,19380,0,0,145
00:46:23,705CD9E0,0,0,19380,0,0,145
00:46:39,705CDBE0,0,0,19380,0,0,145
00:46:55,705CDDE0,0,0,19380,0,0,145
00:47:11,705CDFE0,0,0,19380,0,0,146
00:47:27,705CE1E0,0,0,19380,0,0,146
00:47:43,705CE3E0,0,0,19380,0,0,146
00:47:59,705CE5E0,0,0,19380,0,0,145
00:48:15,705CE7E0,0,0,19380,0,0,144
00:48:31,705CE9E0,0,0,19380,0,0,144
00:48:47,705CEBE0,0,0,19380,0,0,143
00:49:03,705CEDE0,0,0,19380,0,0,142
00:49:19,705CEFE0,0,0,19380,0,0,142
00:49:35,705CF1E0,0,0,19380,0,0,141
00:49:51,705CF3E0,0,0,19380,0,0,141
00:50:07,705CF5E0,0,0,19380,0,0,141
00:50:23,705CF7E0,0,0,19380,0,0,141
00:50:39,705CF9E0,0,0,19380,0,0,142
00:50:55,705CFBE0,0,0,19380,0,0,142
00:51:11,705CFDE0,0,0,19380,0,0,143
00:51:27,705CFFE0,0,0,19380,0,0,143
00:51:43,705D01E0,0,0,19380,0,0,143
00:51:59,705D03E0,0,0,19380,0,0,143
00:52:15,705D05E0,0,0,19380,0,0,144
00:52:31,705D07E0,0,0,19380,0,0,144
00:52:47,705D09E0,0,0,19380,0,0,145
00:53:03,705D0BE0,0,0,19380,0,0,145
00:53:19,705D0DE0,0,0,19380,0,0,145
00:53:35,705D0FE0,0,0,19380,0,0,145
00:53:51,705D11E0,0,0,19380,0,0,146
00:54:07,705D13E0,0,0,19380,0,0,146
00:54:23,705D15E0,0,0,19380,0,0,146
00:54:39,705D17E0,0,0,19380,0,0,145
00:54:55,705D19E0,0,0,19380,0,0,145
00:55:11,705D1BE0,0,0,19380,0,0,144
00:55:27,705D1DE0,0,0,19380,0,0,143
00:55:43,705D1FE0,0,0,19380,0,0,142
00:55:59,705D21E0,0,0,19380,0,0,142
00:56:15,705D23E0,0,0,19380,0,0,141
00:56:31,705D25E0,0,0,19380,0,0,141
00:56:47,705D27E0,0,0,19380,0,0,141
00:57:03,705D29E0,0,0,19380,0,0,141
00:57:19,705D2BE0,0,0,19380,0,0,141
00:57:35,705D2DE0,0,0,19380,0,0,142
00:57:51,705D2FE0,0,0,19380,0,0,143
00:58:07,705D31E0,0,0,19380,0,0,143
00:58:23,705D33E0,0,0,19380,0,0,143
00:58:39,705D35E0,0,0,19380,0,0,144
00:58:55,705D37E0,0,0,19380,0,0,144
00:59:11,705D39E0,0,0,19380,0,0,144
00:59:27,705D3BE0,0,0,19380,0,0,145
00:59:43,705D3DE0,0,0,19380,0,0,145
00:59:59,705D3FE0,0,0,19380,0,0,145
01:00:15,705D41E0,0,0,19380,0,0,145
01:00:31,705D43E0,0,0,19380,0,0,145
01:00:47,705D45E0,0,0,19380,0,0,146
01:01:03,705D47E0,0,0,19380,0,0,146
01:01:19,705D49E0,0,0,19380,0,0,146
01:01:35,705D4BE0,0,0,19380,0,0,145
01:01:51,705D4DE0,0,0,19380,0,0,144
01:02:07,705D4FE0,0,0,19380,0,0,143
01:02:23,705D51E0,0,0,19380,0,0,142
01:02:39,705D53E0,0,0,19380,0,0,142
01:02:55,705D55E0,0,0,19380,0,0,141
01:03:11,705D57E0,0,0,19380,0,0,141
01:03:27,705D59E0,0,0,19380,0,0,141
01:03:43,705D5BE0,0,0,19380,0,0,141
01:03:59,705D5DE0,0,0,19380,0,0,141
01:04:15,705D5FE0,0,0,19380,0,0,142
01:04:31,705D61E0,0,0,19380,0,0,142
01:04:47,705D63E0,0,0,19380,0,0,143
01:05:03,705D65E0,0,0,19380,0,0,143
01:05:19,705D67E0,0,0,19380,0,0,144
01:05:35,705D69E0,0,0,19380,0,0,144
01:05:51,705D6BE0,0,0,19380,0,0,144
01:06:07,705D6DE0,0,0,19380,0,0,144
01:06:23,705D6FE0,0,0,19380,0,0,145
01:06:39,705D71E0,0,0,19380,0,0,145
01:06:55,705D73E0,0,0,19380,0,0,145
01:07:11,705D75E0,0,0,19380,0,0,145
01:07:27,705D77E0,0,0,19380,0,0,146
01:07:43,705D79E0,0,0,19380,0,0,146
01:07:59,705D7BE0,0,0,19380,0,0,145
01:08:15,705D7DE0,0,0,19380,0,0,145
01:08:31,705D7FE0,0,0,19380,0,0,144
01:08:47,705D81E0,0,0,19380,0,0,143
01:09:03,705D83E0,0,0,19380,0,0,142
01:09:19,705D85E0,0,0,19380,0,0,142
01:09:35,705D87E0,0,0,19380,0,0,141
01:09:51,705D89E0,0,0,19380,0,0,141
01:10:07,705D8BE0,0,0,19380,0,0,141
01:10:23,705D8DE0,0,0,19380,0,0,141
01:10:39,705D8FE0,0,0,19380,0,0,142
01:10:55,705D91E0,0,0,19380,0,0,142
01:11:11,705D93E0,0,0,19380,0,0,142
01:11:27,705D95E0,0,0,19380,0,0,143
01:11:43,705D97E0,0,0,19380,0,0,143
01:11:59,705D99E0,0,0,19380,0,0,144
01:12:15,705D9BE0,0,0,19380,0,0,144
01:12:31,705D9DE0,0,0,19380,0,0,144
01:12:47,705D9FE0,0,0,19380,0,0,145
01:13:03,705DA1E0,0,0,19380,0,0,145
01:13:19,705DA3E0,0,0,19380,0,0,145
01:13:35,705DA5E0,0,0,19380,0,0,145
01:13:51,705DA7E0,0,0,19380,0,0,146
01:14:07,705DA9E0,0,0,19380,0,0,146
01:14:23,705DABE0,0,0,19380,0,0,145
01:14:39,705DADE0,0,0,19380,0,0,145
01:14:55,705DAFE0,0,0,19380,0,0,144
01:15:11,705DB1E0,0,0,19380,0,0,143
01:15:27,705DB3E0,0,0,19380,0,0,143
01:15:43,705DB5E0,0,0,19380,0,0,142
01:15:59,705DB7E0,0,0,19380,0,0,141
01:16:15,705DB9E0,0,0,19380,0,0,141
01:16:31,705DBBE0,0,0,19380,0,0,141
01:16:47,705DBDE0,0,0,19380,0,0,141
01:17:03,705DBFE0,0,0,19380,0,0,142
01:17:19,705DC1E0,0,0,19380,0,0,142
01:17:35,705DC3E0,0,0,19380,0,0,142
01:17:51,705DC5E0,0,0,19380,0,0,143
01:18:07,705DC7E0,0,0,19380,0,0,143
01:18:23,705DC9E0,0,0,19380,0,0,144
01:18:39,705DCBE0,0,0,19380,0,0,144
01:18:55,705DCDE0,0,0,19380,0,0,144
01:19:11,705DCFE0,0,0,19380,0,0,145
01:19:27,705DD1E0,0,0,19380,0,0,145
01:19:43,705DD3E0,0,0,19380,0,0,145
01:19:59,705DD5E0,0,0,19380,0,0,145
01:20:15,705DD7E0,0,0,19380,0,0,146
01:20:31,705DD9E0,0,0,19380,0,0,146
01:20:47,705DDBE0,0,0,19380,0,0,146
01:21:03,705DDDE0,0,0,19380,0,0,145
01:21:19,705DDFE0,0,0,19380,0,0,145
01:21:35,705DE1E0,0,0,19380,0,0,144
01:21:51,705DE3E0,0,0,19380,0,0,143
01:22:07,705DE5E0,0,0,19380,0,0,143
01:22:23,705DE7E0,0,0,19380,0,0,142
01:22:39,705DE9E0,0,0,19380,0,0,141
01:22:55,705DEBE0,0,0,19380,0,0,141
01:23:11,705DEDE0,0,0,19380,0,0,141
01:23:27,705DEFE0,0,0,19380,0,0,141
01:23:43,705DF1E0,0,0,19380,0,0,142
01:23:59,705DF3E0,0,0,19380,0,0,142
01:24:15,705DF5E0,0,0,19380,0,0,143
01:24:31,705DF7E0,0,0,19380,0,0,143
01:24:47,705DF9E0,0,0,19380,0,0,143
01:25:03,705DFBE0,0,0,19380,0,0,144
01:25:19,705DFDE0,0,0,19380,0,0,144
01:25:35,705DFFE0,0,0,19380,0,0,144
01:25:51,705E01E0,0,0,19380,0,0,145
01:26:07,705E03E0,0,0,19380,0,0,145
01:26:23,705E05E0,0,0,19380,0,0,145
01:26:39,705E07E0,0,0,19380,0,0,145
01:26:55,705E09E0,0,0,19380,0,0,146
01:27:11,705E0BE0,0,0,19380,0,0,146
01:27:27,705E0DE0,0,0,19380,0,0,146
01:27:43,705E0FE0,0,0,19380,0,0,145
01:27:59,705E11E0,0,0,19380,0,0,144
01:28:15,705E13E0,0,0,19380,0,0,143
01:28:31,705E15E0,0,0,19380,0,0,143
01:28:47,705E17E0,0,0,19380,0,0,142
01:29:03,705E19E0,0,0,19380,0,0,142
01:29:19,705E1BE0,0,0,19380,0,0,141
01:29:35,705E1DE0,0,0,19380,0,0,141
01:29:51,705E1FE0,0,0,19380,0,0,141
01:30:07,705E21E0,0,0,19380,0,0,141
01:30:23,705E23E0,0,0,19380,0,0,142
01:30:39,705E25E0,0,0,19380,0,0,142
01:30:55,705E27E0,0,0,19380,0,0,143
01:31:11,705E29E0,0,0,19380,0,0,143
01:31:27,705E2BE0,0,0,19380,0,0,143
01:31:43,705E2DE0,0,0,19380,0,0,144
01:31:59,705E2FE0,0,0,19380,0,0,144
01:32:15,705E31E0,0,0,19380,0,0,144
01:32:31,705E33E0,0,0,19380,0,0,145
01:32:47,705E35E0,0,0,19380,0,0,145
01:33:03,705E37E0,0,0,19380,0,0,145
01:33:19,705E39E0,0,0,19380,0,0,145
01:33:35,705E3BE0,0,0,19380,0,0,146
01:33:51,705E3DE0,0,0,19380,0,0,145
01:34:07,705E3FE0,0,0,19380,0,0,145
01:34:23,705E41E0,0,0,19380,0,0,144
01:34:39,705E43E0,0,0,19380,0,0,144
01:34:55,705E45E0,0,0,19380,0,0,143
01:35:11,705E47E0,0,0,19380,0,0,142
01:35:27,705E49E0,0,0,19380,0,0,142
01:35:43,705E4BE0,0,0,19380,0,0,141
01:35:59,705E4DE0,0,0,19380,0,0,141
01:36:15,705E4FE0,0,0,19380,0,0,141
01:36:31,705E51E0,0,0,19380,0,0,141
01:36:47,705E53E0,0,0,19380,0,0,142
01:37:03,705E55E0,0,0,19380,0,0,142
01:37:19,705E57E0,0,0,19380,0,0,143
01:37:35,705E59E0,0,0,19380,0,0,143
01:37:51,705E5BE0,0,0,19380,0,0,144
01:38:07,705E5DE0,0,0,19380,0,0,144
01:38:23,705E5FE0,0,0,19380,0,0,144
01:38:39,705E61E0,0,0,19380,0,0,144
01:38:55,705E63E0,0,0,19380,0,0,145
01:39:11,705E65E0,0,0,19380,0,0,145
01:39:27,705E67E0,0,0,19380,0,0,145
01:39:43,705E69E0,0,0,19380,0,0,146
01:39:59,705E6BE0,0,0,19380,0,0,146
01:40:15,705E6DE0,0,0,19380,0,0,146
01:40:31,705E6FE0,0,0,19380,0,0,145
01:40:47,705E71E0,0,0,19380,0,0,144
01:41:03,705E73E0,0,0,19380,0,0,144
01:41:19,705E75E0,0,0,19380,0,0,143
01:41:35,705E77E0,0,0,19380,0,0,142
01:41:51,705E79E0,0,0,19380,0,0,142
01:42:07,705E7BE0,0,0,19380,0,0,141
01:42:23,705E7DE0,0,0,19380,0,0,141
01:42:39,705E7FE0,0,0,19380,0,0,141
01:42:55,705E81E0,0,0,19380,0,0,141
01:43:11,705E83E0,0,0,19380,0,0,142
01:43:27,705E85E0,0,0,19380,0,0,142
01:43:43,705E87E0,0,0,19380,0,0,143
01:43:59,705E89E0,0,0,19380,0,0,143
01:44:15,705E8BE0,0,0,19380,0,0,143
01:44:31,705E8DE0,0,0,19380,0,0,144
01:44:47,705E8FE0,0,0,19380,0,0,144
01:45:03,705E91E0,0,0,19380,0,0,144
01:45:19,705E93E0,0,0,19380,0,0,145
01:45:35,705E95E0,0,0,19380,0,0,145
01:45:51,705E97E0,0,0,19380,0,0,145
01:46:07,705E99E0,0,0,19380,0,0,145
01:46:23,705E9BE0,0,0,19380,0,0,146
01:46:39,705E9DE0,0,0,19380,0,0,146
01:46:55,705E9FE0,0,0,19380,0,0,145
01:47:11,705EA1E0,0,0,19380,0,0,145
01:47:27,705EA3E0,0,0,19380,0,0,144
01:47:43,705EA5E0,0,0,19380,0,0,143
01:47:59,705EA7E0,0,0,19380,0,0,142
01:48:15,705EA9E0,0,0,19380,0,0,142
01:48:31,705EABE0,0,0,19380,0,0,141
01:48:47,705EADE0,0,0,19380,0,0,141
01:49:03,705EAFE0,0,0,19380,0,0,141
01:49:19,705EB1E0,0,0,19380,0,0,141
01:49:35,705EB3E0,0,0,19380,0,0,141
01:49:51,705EB5E0,0,0,19380,0,0,142
01:50:07,705EB7E0,0,0,19380,0,0,143
01:50:23,705EB9E0,0,0,19380,0,0,143
01:50:39,705EBBE0,0,0,19380,0,0,143
01:50:55,705EBDE0,0,0,19380,0,0,144
01:51:11,705EBFE0,0,0,19380,0,0,144
01:51:27,705EC1E0,0,0,19380,0,0,144
01:51:43,705EC3E0,0,0,19380,0,0,145
01:51:59,705EC5E0,0,0,19380,0,0,145
01:52:15,705EC7E0,0,0,19380,0,0,145
01:52:31,705EC9E0,0,0,19380,0,0,145
01:52:47,705ECBE0,0,0,19380,0,0,145
01:53:03,705ECDE0,0,0,19380,0,0,146
01:53:19,705ECFE0,0,0,19380,0,0,146
01:53:35,705ED1E0,0,0,19380,0,0,145
01:53:51,705ED3E0,0,0,19380,0,0,144
01:54:07,705ED5E0,0,0,19380,0,0,143
01:54:23,705ED7E0,0,0,19380,0,0,143
01:54:39,705ED9E0,0,0,19380,0,0,142
01:54:55,705EDBE0,0,0,19380,0,0,141
01:55:11,705EDDE0,0,0,19380,0,0,141
01:55:27,705EDFE0,0,0,19380,0,0,141
01:55:43,705EE1E0,0,0,19380,0,0,141
01:55:59,705EE3E0,0,0,19380,0,0,141
01:56:15,705EE5E0,0,0,19380,0,0,142
01:56:31,705EE7E0,0,0,19380,0,0,142
01:56:47,705EE9E0,0,0,19380,0,0,143
01:57:03,705EEBE0,0,0,19380,0,0,143
01:57:19,705EEDE0,0,0,19380,0,0,144
01:57:35,705EEFE0,0,0,19380,0,0,144
01:57:51,705EF1E0,0,0,19380,0,0,144
01:58:07,705EF3E0,0,0,19380,0,0,144
01:58:23,705EF5E0,0,0,19380,0,0,145
01:58:39,705EF7E0,0,0,19380,0,0,145
01:58:55,705EF9E0,0,0,19380,0,0,145
01:59:11,705EFBE0,0,0,19380,0,0,145
01:59:27,705EFDE0,0,0,19380,0,0,146
01:59:43,705EFFE0,0,0,19380,0,0,146
01:59:59,705F01E0,0,0,19380,0,0,145
02:00:15,705F03E0,0,0,19380,0,0,144
02:00:31,705F05E0,0,0,19380,0,0,144
02:00:47,705F07E0,0,0,19380,0,0,143
02:01:03,705F09E0,0,0,19380,0,0,143
02:01:19,705F0BE0,0,0,19380,0,0,142
02:01:35,705F0DE0,0,0,19380,0,0,141
02:01:51,705F0FE0,0,0,19380,0,0,141
02:02:07,705F11E0,0,0,19380,0,0,141
02:02:23,705F13E0,0,0,19380,0,0,141
02:02:39,705F15E0,0,0,19380,0,0,142
02:02:55,705F17E0,0,0,19380,0,0,142
02:03:11,705F19E0,0,0,19380,0,0,142
02:03:27,705F1BE0,0,0,19380,0,0,143
02:03:43,705F1DE0,0,0,19380,0,0,143
02:03:59,705F1FE0,0,0,19380,0,0,144
02:04:15,705F21E0,0,0,19380,0,0,144
02:04:31,705F23E0,0,0,19380,0,0,144
02:04:47,705F25E0,0,0,19380,0,0,145
02:05:03,705F27E0,0,0,19380,0,0,145
02:05:19,705F29E0,0,0,19380,0,0,145
02:05:35,705F2BE0,0,0,19380,0,0,145
02:05:51,705F2DE0,0,0,19380,0,0,146
02:06:07,705F2FE0,0,0,19380,0,0,146
02:06:23,705F31E0,0,0,19380,0,0,146
02:06:39,705F33E0,0,0,19380,0,0,145
02:06:55,705F35E0,0,0,19380,0,0,144
02:07:11,705F37E0,0,0,19380,0,0,143
02:07:27,705F39E0,0,0,19380,0,0,143
02:07:43,705F3BE0,0,0,19380,0,0,142
02:07:59,705F3DE0,0,0,19380,0,0,142
02:08:15,705F3FE0,0,0,19380,0,0,141
02:08:31,705F41E0,0,0,19380,0,0,141
02:08:47,705F43E0,0,0,19380,0,0,141
02:09:03,705F45E0,0,0,19380,0,0,141
02:09:19,705F47E0,0,0,19380,0,0,142
02:09:35,705F49E0,0,0,19380,0,0,142
02:09:51,705F4BE0,0,0,19380,0,0,143
02:10:07,705F4DE0,0,0,19380,0,0,143
02:10:23,705F4FE0,0,0,19380,0,0,143
02:10:39,705F51E0,0,0,19380,0,0,144
02:10:55,705F53E0,0,0,19380,0,0,144
02:11:11,705F55E0,0,0,19380,0,0,145
02:11:27,705F57E0,0,0,19380,0,0,145
02:11:43,705F59E0,0,0,19380,0,0,145
02:11:59,705F5BE0,0,0,19380,0,0,145
02:12:15,705F5DE0,0,0,19380,0,0,145
02:12:31,705F5FE0,0,0,19380,0,0,145
02:12:47,705F61E0,0,0,19380,0,0,146
02:13:03,705F63E0,0,0,19380,0,0,145
02:13:19,705F65E0,0,0,19380,0,0,145
02:13:35,705F67E0,0,0,19380,0,0,144
02:13:51,705F69E0,0,0,19380,0,0,143
02:14:07,705F6BE0,0,0,19380,0,0,143
02:14:23,705F6DE0,0,0,19380,0,0,142
02:14:39,705F6FE0,0,0,19380,0,0,142
02:14:55,705F71E0,0,0,19380,0,0,141
02:15:11,705F73E0,0,0,19380,0,0,141
02:15:27,705F75E0,0,0,19380,0,0,141
02:15:43,705F77E0,0,0,19380,0,0,141
02:15:59,705F79E0,0,0,19380,0,0,142
02:16:15,705F7BE0,0,0,19380,0,0,143
02:16:31,705F7DE0,0,0,19380,0,0,143
02:16:47,705F7FE0,0,0,19380,0,0,143
02:17:03,705F81E0,0,0,19380,0,0,144
02:17:19,705F83E0,0,0,19380,0,0,144
02:17:35,705F85E0,0,0,19380,0,0,144
02:17:51,705F87E0,0,0,19380,0,0,145
02:18:07,705F89E0,0,0,19380,0,0,145
02:18:23,705F8BE0,0,0,19380,0,0,145
02:18:39,705F8DE0,0,0,19380,0,0,145
02:18:55,705F8FE0,0,0,19380,0,0,145
02:19:11,705F91E0,0,0,19380,0,0,146
02:19:27,705F93E0,0,0,19380,0,0,145
02:19:43,705F95E0,0,0,19380,0,0,145
02:19:59,705F97E0,0,0,19380,0,0,144
02:20:15,705F99E0,0,0,19380,0,0,144
02:20:31,705F9BE0,0,0,19380,0,0,143
02:20:47,705F9DE0,0,0,19380,0,0,142
02:21:03,705F9FE0,0,0,19380,0,0,142
02:21:19,705FA1E0,0,0,19380,0,0,141
02:21:35,705FA3E0,0,0,19380,0,0,141
02:21:51,705FA5E0,0,0,19380,0,0,141
02:22:07,705FA7E0,0,0,19380,0,0,141
02:22:23,705FA9E0,0,0,19380,0,0,142
02:22:39,705FABE0,0,0,19380,0,0,142
02:22:55,705FADE0,0,0,19380,0,0,142
02:23:11,705FAFE0,0,0,19380,0,0,143
02:23:27,705FB1E0,0,0,19380,0,0,143
02:23:43,705FB3E0,0,0,19380,0,0,144
02:23:59,705FB5E0,0,0,19380,0,0,144
02:24:15,705FB7E0,0,0,19380,0,0,144
02:24:31,705FB9E0,0,0,19380,0,0,144
02:24:47,705FBBE0,0,0,19380,0,0,145
02:25:03,705FBDE0,0,0,19380,0,0,145
02:25:19,705FBFE0,0,0,19380,0,0,145
02:25:35,705FC1E0,0,0,19380,0,0,146
02:25:51,705FC3E0,0,0,19380,0,0,146
02:26:07,705FC5E0,0,0,19380,0,0,146
02:26:23,705FC7E0,0,0,19380,0,0,145
02:26:39,705FC9E0,0,0,19380,0,0,144
02:26:55,705FCBE0,0,0,19380,0,0,144
02:27:11,705FCDE0,0,0,19380,0,0,143
02:27:27,705FCFE0,0,0,19380,0,0,142
02:27:43,705FD1E0,0,0,19380,0,0,142
02:27:59,705FD3E0,0,0,19380,0,0,141
02:28:15,705FD5E0,0,0,19380,0,0,140
02:28:31,705FD7E0,0,0,19380,0,0,141
02:28:47,705FD9E0,0,0,19380,0,0,141
02:29:03,705FDBE0,0,0,19380,0,0,142
02:29:19,705FDDE0,0,0,19380,0,0,142
02:29:35,705FDFE0,0,0,19380,0,0,142
02:29:51,705FE1E0,0,0,19380,0,0,143
02:30:07,705FE3E0,0,0,19380,0,0,143
02:30:23,705FE5E0,0,0,19380,0,0,144
02:30:39,705FE7E0,0,0,19380,0,0,144
02:30:55,705FE9E0,0,0,19380,0,0,144
02:31:11,705FEBE0,0,0,19380,0,0,145
02:31:27,705FEDE0,0,0,19380,0,0,145
02:31:43,705FEFE0,0,0,19380,0,0,145
02:31:59,705FF1E0,0,0,19380,0,0,145
02:32:15,705FF3E0,0,0,19380,0,0,146
02:32:31,705FF5E0,0,0,19380,0,0,146
02:32:47,705FF7E0,0,0,19380,0,0,146
02:33:03,705FF9E0,0,0,19380,0,0,145
02:33:19,705FFBE0,0,0,19380,0,0,144
02:33:35,705FFDE0,0,0,19380,0,0,143
02:33:51,705FFFE0,0,0,19380,0,0,143
02:34:07,706001E0,0,0,19380,0,0,142
02:34:23,706003E0,0,0,19380,0,0,142
02:34:39,706005E0,0,0,19380,0,0,141
02:34:55,706007E0,0,0,19380,0,0,141
02:35:11,706009E0,0,0,19380,0,0,141
02:35:27,70600BE0,0,0,19380,0,0,141
02:35:43,70600DE0,0,0,19380,0,0,142
02:35:59,70600FE0,0,0,19380,0,0,142
02:36:15,706011E0,0,0,19380,0,0,143
02:36:31,706013E0,0,0,19380,0,0,143
02:36:47,706015E0,0,0,19380,0,0,143
02:37:03,706017E0,0,0,19380,0,0,144
02:37:19,706019E0,0,0,19380,0,0,144
02:37:35,70601BE0,0,0,19380,0,0,145
02:37:51,70601DE0,0,0,19380,0,0,145
02:38:07,70601FE0,0,0,19380,0,0,145
02:38:23,706021E0,0,0,19380,0,0,145
02:38:39,706023E0,0,0,19380,0,0,145
02:38:55,706025E0,0,0,19380,0,0,146
02:39:11,706027E0,0,0,19380,0,0,146
02:39:27,706029E0,0,0,19380,0,0,146
02:39:43,70602BE0,0,0,19380,0,0,145
02:39:59,70602DE0,0,0,19380,0,0,144
02:40:15,70602FE0,0,0,19380,0,0,143
02:40:31,706031E0,0,0,19380,0,0,142
02:40:47,706033E0,0,0,19380,0,0,142
02:41:03,706035E0,0,0,19380,0,0,141
02:41:19,706037E0,0,0,19380,0,0,141
02:41:35,706039E0,0,0,19380,0,0,141
02:41:51,70603BE0,0,0,19380,0,0,141
02:42:07,70603DE0,0,0,19380,0,0,141
02:42:23,70603FE0,0,0,19380,0,0,142
02:42:39,706041E0,0,0,19380,0,0,142
02:42:55,706043E0,0,0,19380,0,0,143
02:43:11,706045E0,0,0,19380,0,0,143
02:43:27,706047E0,0,0,19380,0,0,144
02:43:43,706049E0,0,0,19380,0,0,144
02:43:59,70604BE0,0,0,19380,0,0,144
02:44:15,70604DE0,0,0,19380,0,0,145
02:44:31,70604FE0,0,0,19380,0,0,145
02:44:47,706051E0,0,0,19380,0,0,145
02:45:03,706053E0,0,0,19380,0,0,145
02:45:19,706055E0,0,0,19380,0,0,145
02:45:35,706057E0,0,0,19380,0,0,146
02:45:51,706059E0,0,0,19380,0,0,145
02:46:07,70605BE0,0,0,19380,0,0,145
02:46:23,70605DE0,0,0,19380,0,0,144
02:46:39,70605FE0,0,0,19380,0,0,144
02:46:55,706061E0,0,0,19380,0,0,143
02:47:11,706063E0,0,0,19380,0,0,142
02:47:27,706065E0,0,0,19380,0,0,141
02:47:43,706067E0,0,0,19380,0,0,141
02:47:59,706069E0,0,0,19380,0,0,141
02:48:15,70606BE0,0,0,19380,0,0,141
02:48:31,70606DE0,0,0,19380,0,0,141
02:48:47,70606FE0,0,0,19380,0,0,142
02:49:03,706071E0,0,0,19380,0,0,142
02:49:19,706073E0,0,0,19380,0,0,143
02:49:35,706075E0,0,0,19380,0,0,143
02:49:51,706077E0,0,0,19380,0,0,144
02:50:07,706079E0,0,0,19380,0,0,144
02:50:23,70607BE0,0,0,19380,0,0,144
02:50:39,70607DE0,0,0,19380,0,0,144
02:50:55,70607FE0,0,0,19380,0,0,145
02:51:11,706081E0,0,0,19380,0,0,145
02:51:27,706083E0,0,0,19380,0,0,145
02:51:43,706085E0,0,0,19380,0,0,146
02:51:59,706087E0,0,0,19380,0,0,146
02:52:15,706089E0,0,0,19380,0,0,146
02:52:31,70608BE0,0,0,19380,0,0,145
02:52:47,70608DE0,0,0,19380,0,0,144